#timestamp,LO_Frequency,Hit,StdDev 
1596351615.6,286046999.0,N
1596351635.5,286046999.4,N
1596351655.3,286046998.9,N
1596351675.1,286046999.3,N
1596351695.9,286046997.0,Y
1596351715.7,286046996.6,P
1596351735.5,286046998.5,N
1596351755.4,286046999.2,N
1596351775.2,286046999.6,N
1596351795.1,286046999.5,N
1596351796.0,286046999.5,N
1596351815.8,286046996.5,Y
1596351835.6,286046998.3,P
1596351855.5,286046998.2,P
1596351875.3,286046999.3,N
1596351895.2,286047001.0,N
1596351915.9,286047000.5,N
1596351935.7,286047000.4,N
1596351955.6,286046998.5,N
1596351975.4,286046999.1,N
1596351995.2,286047000.9,N
1596352015.1,286046998.1,N
1596352016.0,286046998.1,N
1596352035.8,286047000.9,N
1596352055.7,286046996.6,Y
1596352075.5,286046998.7,P
1596352095.3,286046999.5,N
1596352115.2,286046999.6,N
1596352135.0,286046999.1,N
1596352135.9,286046999.1,N
1596352155.8,286046999.2,N
1596352175.6,286046998.8,Y
1596352195.4,286047000.7,P
1596352215.3,286046998.8,N
1596352235.1,286046999.2,N
1596352255.9,286046999.0,N
1596352275.7,286046999.2,N
1596352295.5,286046999.2,N
1596352315.4,286046999.4,N
1596352335.2,286046999.3,N
1596352355.0,286046999.1,N
1596352355.9,286046999.1,N
1596352375.8,286046998.4,Y
1596352395.6,286046998.8,P
1596352415.5,286046998.3,P
1596352435.3,286046998.4,P
1596352455.1,286046998.1,Y
1596352475.9,286047001.9,P
1596352495.7,286047002.0,N
1596352515.6,286047001.9,N
1596352535.4,286047002.3,N
1596352555.2,286047000.3,N
1596352575.1,286047002.2,N
1596352576.0,286047002.2,N
1596352595.8,286047000.7,N
1596352615.7,286046999.7,N
1596352635.5,286047002.7,N
1596352655.3,286046999.8,N
1596352675.2,286047002.2,N
1596352695.0,286047005.3,Y
1596352695.9,286047005.3,P
1596352715.7,286047003.5,N
1596352735.6,286047005.9,P
1596352755.4,286047003.7,N
1596352775.3,286047004.4,N
1596352795.1,286047003.8,N
1596352815.9,286047006.0,Y
1596352835.7,286047002.4,P
1596352855.5,286047000.0,N
1596352875.4,286047002.2,N
1596352895.2,286047001.9,N
1596352915.0,286047002.2,N
1596352915.9,286047002.2,N
1596352935.8,286047004.0,Y
1596352955.6,286046999.7,P
1596352975.5,286047002.6,N
1596352995.3,286047004.3,P
1596353015.1,286047004.3,N
1596353035.9,286047001.8,N
1596353055.7,286047004.4,N
1596353075.6,286047003.3,N
1596353095.4,286047003.7,N
1596353115.2,286047003.5,N
1596353135.1,286047004.1,N
1596353136.0,286047004.1,N
1596353155.8,286047004.6,Y
1596353175.7,286047004.3,P
1596353195.5,286047002.2,P
1596353215.3,286047000.6,N
1596353235.2,286047000.8,N
1596353255.0,286046998.4,N
1596353255.9,286046998.4,N
1596353275.7,286046998.6,N
1596353295.6,286046998.1,N
1596353315.4,286047002.1,N
1596353335.3,286047002.5,N
1596353355.1,286047000.5,N
1596353375.8,286047000.9,N
1596353395.7,286047001.8,N
1596353415.5,286047011.9,Y
1596353435.4,286047000.3,P
1596353455.2,286047002.3,P
1596353475.0,286046999.9,N
1596353475.9,286046999.9,N
1596353495.8,286047000.2,N
1596353515.6,286047003.6,Y
1596353535.5,286047002.2,P
1596353555.3,286047001.7,N
1596353575.1,286047001.8,N
1596353595.9,286046999.7,N
1596353615.7,286047002.8,Y
1596353635.5,286047000.3,P
1596353655.4,286047002.7,P
1596353675.2,286047000.8,N
1596353695.1,286047000.6,N
1596353696.0,286047000.6,N
1596353715.8,286047002.1,N
1596353735.6,286047002.7,Y
1596353755.5,286047000.4,P
1596353775.3,286047000.8,N
1596353795.2,286046998.6,P
1596353815.9,286047000.8,N
1596353835.7,286047000.7,N
1596353855.6,286047000.3,N
1596353875.4,286047000.1,N
1596353895.2,286047002.0,N
1596353915.1,286047002.4,N
1596353916.0,286047002.4,N
1596353935.8,286047001.8,N
1596353955.7,286047002.6,N
1596353975.5,286047001.4,N
1596353995.3,286047003.8,Y
1596354015.2,286047001.5,P
1596354035.0,286047001.9,P
1596354035.9,286047001.9,P
1596354055.8,286047002.7,Y
1596354075.6,286046999.0,P
1596354095.5,286046999.8,N
1596354115.3,286047001.2,N
1596354135.1,286046998.9,N
1596354155.9,286046998.4,N
1596354175.7,286046996.7,N
1596354195.5,286046997.6,N
1596354215.4,286046995.3,Y
1596354235.2,286046995.0,P
1596354255.1,286046996.7,N
1596354256.0,286046996.7,N
1596354275.8,286046997.7,N
1596354295.6,286046996.9,N
1596354315.5,286047000.4,N
1596354335.3,286047000.3,N
1596354355.2,286047000.4,N
1596354375.9,286046998.1,N
1596354395.7,286046999.3,N
1596354415.6,286046999.2,N
1596354435.4,286046999.4,N
1596354455.2,286046996.5,N
1596354475.1,286046999.6,N
1596354476.0,286046999.6,N
1596354495.8,286046999.2,N
1596354515.7,286046999.5,N
1596354535.5,286046999.6,N
1596354555.3,286046999.6,N
1596354575.2,286046999.6,N
1596354595.0,286046999.2,N
1596354595.9,286046999.2,N
1596354615.7,286046996.9,N
1596354635.6,286046997.2,N
1596354655.4,286046996.6,N
1596354675.3,286046999.4,N
1596354695.1,286046999.2,N
1596354715.8,286046999.5,N
1596354735.7,286046997.2,N
1596354755.5,286046997.9,N
1596354775.4,286046998.0,N
1596354795.2,286046995.0,Y
1596354815.0,286046996.7,P
1596354815.9,286046996.7,P
1596354835.8,286046996.7,P
1596354855.6,286046997.4,Y
1596354875.5,286047000.6,P
1596354895.3,286047000.2,N
1596354915.1,286046998.2,N
1596354935.9,286046998.1,N
1596354955.7,286046998.3,N
1596354975.5,286047001.1,N
1596354995.4,286047000.5,N
1596355015.2,286046999.4,N
1596355035.1,286046998.6,N
1596355036.0,286046998.6,N
1596355055.8,286046999.2,N
1596355075.6,286046996.8,N
1596355095.5,286046999.3,N
1596355115.3,286046998.1,N
1596355135.1,286046998.6,N
1596355155.9,286046998.9,N
1596355175.7,286046998.5,N
1596355195.6,286046998.6,N
